Temp
-15 -15 -15 -15 -14 -14 -14 -14 -14 -14 -14 -14 -14 -14 -14 -13 -13 -13 -13 -13 -13 -13 -13 -13 -13 -13 -13 -13 -13 -13 -13 -14 -14 -14 -14 -14 -14 -14 -14 -14 -14 -14 -14 -14 -14 -15 -15 -15 -15 -14 -14 -14 -14 -14 -14 -14 -14 -14 -14 -14 -14 -14 -14
-15 -15 -15 -15 -15 -14 -14 -14 -14 -14 -14 -14 -14 -14 -14 -14 -13 -13 -13 -13 -13 -13 -13 -13 -13 -13 -13 -14 -14 -14 -14 -14 -14 -14 -14 -14 -14 -14 -14 -14 -14 -14 -14 -14 -15 -15 -15 -15 -14 -14 -14 -14 -14 -14 -14 -14 -14 -14 -14 -14 -14 -14 -14
-15 -15 -15 -15 -15 -15 -14 -14 -14 -14 -15 -14 -14 -14 -14 -14 -14 -14 -13 -13 -13 -13 -13 -14 -14 -14 -14 -14 -14 -14 -14 -14 -14 -14 -14 -14 -14 -14 -14 -14 -14 -14 -14 -14 -15 -15 -15 -14 -14 -14 -14 -14 -14 -14 -14 -14 -14 -14 -14 -14 -14 -14 -14
-15 -16 -15 -15 -15 -15 -15 -15 -14 -14 -14 -15 -14 -14 -14 -14 -14 -14 -14 -14 -14 -14 -14 -14 -14 -14 -14 -14 -14 -14 -14 -14 -14 -14 -14 -14 -14 -14 -14 -14 -14 -14 -14 -14 -14 -14 -14 -14 -14 -14 -14 -14 -14 -14 -14 -14 -14 -14 -14 -14 -14 -14 -14
-16 -16 -16 -16 -15 -15 -15 -15 -15 -14 -14 -14 -15 -15 -15 -15 -14 -14 -14 -14 -14 -14 -14 -14 -14 -14 -14 -14 -14 -14 -14 -14 -14 -14 -14 -14 -14 -15 -15 -15 -15 -15 -15 -15 -15 -15 -14 -14 -14 -14 -14 -14 -14 -14 -14 -14 -14 -14 -14 -14 -14 -14 -14
-16 -16 -15 -15 -15 -15 -15 -15 -15 -15 -14 -14 -14 -15 -15 -15 -15 -15 -15 -14 -14 -14 -14 -14 -14 -14 -14 -14 -14 -14 -14 -14 -14 -15 -15 -15 -15 -15 -15 -15 -15 -15 -15 -15 -15 -15 -15 -15 -15 -15 -15 -15 -15 -15 -15 -15 -15 -15 -15 -15 -15 -15 -15
-15 -15 -15 -15 -16 -15 -15 -15 -15 -15 -15 -15 -15 -15 -15 -15 -15 -15 -15 -15 -15 -14 -14 -14 -15 -15 -14 -14 -14 -14 -14 -15 -15 -15 -15 -15 -15 -15 -15 -15 -15 -15 -15 -15 -15 -15 -15 -15 -15 -15 -15 -15 -15 -15 -15 -15 -15 -15 -15 -15 -15 -15 -15
-15 -15 -16 -16 -16 -16 -15 -15 -15 -15 -15 -15 -15 -14 -15 -15 -15 -15 -15 -15 -15 -15 -15 -15 -15 -15 -15 -15 -15 -15 -15 -15 -15 -15 -15 -15 -15 -15 -15 -15 -15 -15 -15 -15 -15 -15 -15 -15 -15 -15 -15 -15 -15 -15 -15 -15 -15 -15 -15 -15 -15 -15 -15
-16 -16 -16 -16 -16 -16 -15 -15 -15 -15 -15 -15 -15 -14 -14 -15 -15 -15 -15 -15 -15 -15 -15 -15 -15 -15 -15 -15 -15 -15 -15 -15 -15 -15 -15 -15 -15 -16 -16 -16 -16 -16 -16 -16 -16 -16 -16 -16 -16 -16 -16 -16 -16 -15 -15 -15 -15 -15 -15 -15 -15 -15 -15
-16 -16 -16 -16 -16 -16 -15 -15 -15 -15 -15 -15 -15 -15 -14 -14 -15 -15 -15 -15 -15 -15 -15 -15 -15 -15 -15 -15 -15 -15 -15 -15 -15 -15 -16 -16 -16 -16 -16 -16 -16 -16 -16 -16 -16 -16 -16 -16 -16 -16 -16 -16 -16 -16 -16 -16 -16 -16 -16 -16 -16 -16 -16
-16 -16 -16 -16 -16 -15 -15 -15 -15 -15 -15 -15 -15 -15 -14 -15 -15 -15 -15 -15 -15 -15 -15 -15 -15 -16 -16 -15 -15 -15 -15 -15 -16 -16 -16 -16 -16 -16 -16 -16 -16 -16 -16 -16 -16 -16 -16 -16 -16 -16 -16 -16 -16 -16 -16 -16 -16 -16 -16 -16 -16 -16 -16
-16 -16 -16 -16 -16 -16 -15 -15 -15 -15 -15 -15 -15 -15 -15 -15 -15 -16 -16 -16 -16 -16 -16 -16 -16 -16 -16 -16 -16 -16 -16 -16 -16 -16 -16 -16 -16 -16 -16 -16 -17 -17 -17 -17 -17 -17 -17 -17 -16 -16 -16 -16 -16 -16 -16 -16 -16 -16 -16 -16 -16 -16 -16
-16 -16 -16 -16 -16 -16 -16 -15 -15 -15 -15 -15 -15 -15 -15 -15 -15 -16 -16 -16 -16 -16 -16 -16 -16 -16 -16 -16 -16 -16 -16 -16 -16 -16 -16 -16 -16 -16 -16 -17 -17 -17 -17 -17 -17 -17 -17 -17 -17 -17 -17 -17 -17 -17 -17 -17 -17 -17 -17 -17 -17 -17 -17
-16 -16 -16 -16 -16 -16 -16 -16 -16 -16 -15 -15 -15 -15 -15 -15 -15 -16 -16 -16 -16 -17 -17 -17 -17 -17 -17 -17 -17 -17 -17 -16 -16 -16 -16 -17 -17 -17 -17 -17 -17 -17 -17 -17 -17 -17 -17 -17 -17 -17 -17 -17 -17 -17 -17 -17 -17 -17 -17 -17 -17 -17 -17
-16 -17 -17 -17 -17 -17 -16 -16 -16 -16 -16 -16 -15 -15 -15 -15 -16 -16 -16 -16 -17 -17 -17 -17 -17 -17 -17 -17 -17 -17 -17 -17 -17 -17 -17 -17 -17 -17 -17 -17 -17 -17 -17 -17 -17 -17 -17 -17 -17 -17 -17 -17 -17 -17 -17 -17 -17 -17 -17 -17 -17 -17 -17
-17 -17 -17 -17 -17 -17 -17 -16 -16 -16 -16 -16 -16 -16 -15 -16 -16 -16 -16 -17 -17 -17 -17 -17 -17 -17 -17 -17 -17 -17 -17 -17 -17 -17 -17 -17 -17 -17 -17 -17 -17 -17 -17 -17 -17 -17 -17 -18 -18 -18 -18 -18 -18 -18 -17 -18 -17 -17 -17 -17 -17 -17 -17
-18 -18 -17 -17 -17 -17 -17 -17 -16 -16 -16 -16 -16 -16 -16 -16 -16 -16 -17 -17 -17 -17 -17 -17 -17 -17 -17 -17 -17 -17 -17 -17 -17 -17 -17 -17 -17 -17 -17 -17 -17 -17 -17 -17 -17 -17 -18 -18 -18 -18 -18 -18 -18 -18 -18 -18 -18 -17 -17 -17 -17 -17 -17
-18 -18 -18 -18 -17 -17 -17 -17 -17 -17 -16 -16 -16 -16 -16 -16 -16 -17 -17 -17 -17 -17 -17 -17 -17 -18 -18 -18 -18 -18 -18 -17 -17 -17 -17 -17 -17 -17 -17 -17 -17 -18 -18 -18 -18 -18 -18 -18 -18 -18 -18 -18 -18 -18 -18 -18 -18 -18 -17 -17 -17 -17 -17
-18 -18 -18 -18 -18 -17 -17 -17 -17 -17 -17 -17 -17 -17 -17 -16 -17 -17 -17 -17 -17 -17 -17 -17 -17 -18 -18 -18 -18 -18 -18 -18 -17 -17 -17 -17 -17 -17 -17 -17 -18 -18 -18 -18 -18 -18 -18 -18 -18 -18 -18 -18 -18 -18 -18 -18 -18 -18 -18 -17 -17 -17 -17
-18 -18 -18 -18 -18 -18 -18 -18 -17 -17 -17 -17 -17 -17 -17 -17 -17 -17 -17 -17 -17 -17 -17 -17 -18 -18 -18 -18 -18 -18 -18 -18 -17 -17 -17 -17 -17 -18 -18 -18 -18 -18 -18 -18 -18 -18 -18 -18 -18 -18 -18 -18 -18 -18 -18 -18 -18 -18 -18 -18 -18 -17 -17
-18 -18 -18 -18 -18 -18 -18 -18 -18 -18 -18 -17 -17 -17 -17 -17 -17 -17 -17 -17 -17 -17 -17 -17 -17 -18 -18 -18 -18 -18 -18 -18 -18 -18 -18 -18 -18 -18 -18 -18 -18 -18 -18 -18 -18 -18 -18 -18 -18 -18 -18 -18 -18 -18 -18 -18 -18 -18 -18 -18 -18 -18 -18
-18 -18 -18 -18 -18 -18 -18 -18 -18 -18 -18 -18 -18 -18 -17 -17 -17 -17 -17 -17 -17 -17 -17 -17 -17 -17 -18 -18 -18 -18 -18 -18 -18 -18 -18 -18 -17 -17 -17 -18 -18 -18 -18 -18 -18 -18 -18 -18 -18 -18 -18 -18 -18 -18 -18 -18 -18 -18 -18 -18 -18 -18 -18
-18 -18 -18 -18 -18 -18 -18 -18 -18 -18 -18 -18 -18 -18 -18 -17 -17 -17 -17 -17 -17 -17 -17 -17 -17 -17 -17 -17 -17 -17 -18 -18 -18 -18 -18 -18 -17 -17 -18 -18 -18 -18 -18 -18 -18 -18 -18 -18 -18 -18 -18 -18 -18 -18 -18 -18 -18 -18 -18 -18 -18 -18 -18
-18 -18 -18 -18 -18 -18 -18 -18 -18 -18 -18 -18 -18 -18 -18 -18 -18 -18 -17 -17 -17 -17 -17 -18 -18 -18 -17 -18 -18 -17 -17 -18 -18 -18 -18 -18 -18 -18 -18 -18 -18 -18 -18 -18 -18 -18 -18 -18 -18 -18 -18 -18 -18 -18 -18 -18 -18 -18 -18 -18 -18 -18 -18
-18 -18 -18 -18 -18 -18 -18 -18 -18 -18 -18 -18 -18 -18 -18 -18 -18 -18 -18 -18 -18 -18 -18 -18 -18 -18 -18 -18 -18 -18 -18 -18 -18 -18 -18 -18 -18 -18 -18 -18 -18 -18 -18 -18 -18 -18 -18 -18 -18 -18 -18 -18 -18 -18 -18 -18 -18 -18 -18 -18 -18 -18 -18
-18 -18 -18 -18 -18 -18 -18 -18 -18 -18 -18 -18 -18 -18 -18 -18 -18 -18 -18 -18 -18 -18 -18 -18 -18 -18 -18 -18 -18 -18 -18 -18 -18 -18 -18 -18 -18 -18 -18 -18 -18 -18 -18 -18 -18 -18 -18 -18 -18 -18 -18 -18 -18 -18 -18 -18 -18 -18 -18 -18 -18 -18 -18
-18 -18 -18 -18 -18 -18 -19 -18 -18 -18 -18 -18 -18 -18 -18 -18 -18 -18 -19 -18 -18 -18 -18 -18 -18 -18 -18 -18 -18 -18 -18 -18 -18 -18 -18 -18 -18 -18 -18 -18 -19 -19 -19 -18 -18 -18 -18 -18 -18 -18 -19 -19 -19 -19 -19 -19 -19 -19 -19 -19 -19 -19 -19
-18 -18 -18 -18 -18 -18 -19 -19 -19 -18 -18 -18 -18 -18 -18 -18 -19 -19 -19 -19 -18 -18 -19 -19 -19 -19 -19 -19 -19 -19 -19 -18 -18 -19 -18 -18 -18 -18 -18 -19 -19 -19 -19 -19 -19 -19 -19 -19 -19 -19 -19 -19 -19 -19 -19 -19 -19 -19 -19 -19 -19 -19 -19
-19 -19 -18 -18 -18 -19 -19 -19 -19 -19 -19 -19 -19 -19 -18 -19 -19 -19 -19 -19 -19 -19 -19 -19 -19 -19 -19 -19 -19 -19 -19 -19 -19 -19 -19 -18 -19 -19 -19 -19 -19 -19 -19 -19 -19 -19 -19 -19 -19 -19 -19 -19 -19 -19 -19 -19 -19 -19 -19 -19 -19 -19 -19
-19 -19 -19 -19 -19 -19 -19 -19 -19 -19 -19 -19 -19 -19 -19 -19 -19 -19 -19 -19 -19 -19 -19 -19 -19 -19 -19 -19 -19 -19 -19 -19 -19 -19 -19 -19 -19 -19 -19 -19 -19 -19 -19 -19 -19 -19 -19 -19 -19 -20 -20 -20 -20 -20 -20 -20 -20 -20 -20 -20 -20 -20 -20
-20 -20 -20 -19 -19 -19 -20 -20 -20 -20 -20 -19 -19 -19 -19 -19 -19 -19 -19 -19 -19 -19 -19 -19 -20 -20 -20 -19 -19 -19 -19 -20 -20 -19 -19 -19 -19 -20 -20 -20 -20 -20 -20 -20 -20 -20 -20 -20 -20 -20 -20 -20 -20 -20 -20 -20 -20 -20 -20 -20 -20 -20 -20
-20 -20 -20 -20 -20 -20 -20 -20 -20 -20 -20 -20 -20 -20 -20 -20 -19 -19 -19 -19 -19 -19 -19 -19 -20 -20 -20 -20 -20 -20 -20 -20 -20 -19 -19 -20 -20 -20 -20 -20 -20 -20 -20 -20 -20 -20 -20 -20 -20 -20 -20 -20 -20 -20 -20 -21 -21 -20 -20 -20 -20 -20 -20
-20 -20 -20 -20 -20 -20 -20 -20 -20 -20 -20 -20 -20 -20 -20 -20 -20 -20 -20 -20 -20 -20 -20 -20 -20 -20 -20 -20 -20 -20 -20 -20 -20 -20 -19 -20 -20 -20 -20 -20 -21 -21 -20 -20 -20 -20 -20 -20 -20 -20 -20 -20 -20 -20 -20 -21 -21 -21 -21 -21 -21 -21 -20
-20 -20 -20 -20 -20 -20 -20 -21 -21 -21 -21 -21 -20 -20 -20 -20 -20 -20 -20 -20 -20 -20 -20 -20 -20 -20 -20 -20 -20 -20 -20 -20 -20 -20 -19 -20 -20 -20 -21 -21 -21 -21 -21 -21 -21 -21 -21 -21 -21 -21 -21 -21 -21 -21 -21 -21 -21 -21 -21 -21 -21 -21 -21
-20 -20 -20 -21 -21 -21 -21 -21 -21 -21 -21 -21 -20 -20 -20 -20 -20 -20 -20 -20 -20 -20 -20 -20 -20 -20 -20 -20 -20 -20 -20 -20 -20 -20 -19 -20 -20 -21 -21 -21 -21 -21 -21 -21 -21 -21 -21 -21 -21 -21 -21 -21 -21 -21 -21 -21 -21 -21 -21 -21 -21 -21 -21
-21 -21 -21 -21 -21 -21 -21 -21 -21 -21 -21 -21 -21 -20 -20 -20 -20 -20 -20 -20 -21 -20 -20 -21 -21 -21 -21 -20 -20 -20 -20 -20 -20 -20 -20 -20 -20 -21 -21 -21 -21 -21 -21 -21 -21 -21 -21 -21 -21 -21 -21 -21 -21 -21 -21 -21 -21 -21 -21 -21 -21 -21 -21
-21 -21 -21 -21 -21 -21 -21 -21 -21 -21 -21 -21 -21 -21 -20 -20 -20 -20 -20 -21 -21 -21 -21 -21 -21 -21 -21 -21 -21 -20 -20 -20 -20 -21 -20 -20 -20 -21 -21 -21 -21 -21 -21 -21 -21 -21 -21 -21 -21 -21 -21 -21 -21 -21 -21 -21 -21 -22 -22 -22 -22 -21 -21
Height
5776 5776 5777 5778 5778 5779 5779 5779 5780 5780 5780 5780 5780 5780 5780 5781 5781 5781 5781 5781 5781 5781 5781 5781 5781 5781 5782 5781 5781 5781 5781 5781 5780 5781 5781 5781 5782 5782 5781 5780 5780 5781 5781 5781 5781 5780 5780 5781 5781 5781 5782 5782 5782 5782 5782 5782 5783 5783 5783 5783 5783 5782 5782
5775 5776 5776 5777 5777 5777 5777 5778 5778 5779 5779 5779 5779 5779 5779 5779 5779 5779 5779 5779 5779 5779 5779 5779 5779 5779 5779 5779 5779 5779 5779 5779 5779 5779 5779 5779 5779 5780 5780 5780 5779 5779 5779 5779 5779 5779 5778 5779 5779 5780 5780 5780 5780 5780 5780 5780 5780 5781 5781 5781 5781 5781 5780
5773 5775 5776 5776 5776 5776 5776 5777 5777 5778 5778 5778 5778 5778 5778 5778 5778 5778 5778 5777 5777 5777 5777 5777 5777 5778 5778 5778 5778 5778 5778 5777 5777 5778 5778 5778 5778 5778 5779 5779 5778 5778 5778 5778 5777 5777 5777 5777 5777 5778 5778 5778 5778 5778 5778 5778 5778 5778 5779 5779 5779 5779 5779
5772 5773 5774 5774 5775 5775 5775 5775 5776 5777 5777 5777 5777 5777 5776 5776 5776 5776 5776 5776 5776 5776 5775 5775 5776 5776 5776 5776 5776 5776 5776 5776 5776 5776 5776 5776 5776 5777 5777 5777 5777 5777 5777 5777 5776 5775 5775 5776 5775 5775 5776 5776 5776 5776 5776 5776 5776 5776 5776 5777 5777 5777 5777
5770 5771 5771 5772 5773 5773 5774 5774 5775 5775 5775 5775 5775 5775 5775 5775 5775 5775 5775 5775 5774 5774 5774 5774 5774 5774 5774 5774 5774 5774 5774 5774 5775 5775 5775 5774 5774 5775 5775 5774 5775 5775 5775 5775 5774 5774 5774 5774 5774 5774 5774 5774 5774 5774 5774 5774 5774 5774 5774 5774 5774 5775 5775
5769 5769 5770 5770 5771 5772 5772 5772 5773 5773 5774 5774 5773 5773 5773 5773 5773 5773 5773 5773 5773 5773 5773 5772 5772 5772 5772 5772 5772 5773 5773 5773 5773 5773 5773 5773 5772 5773 5773 5772 5772 5772 5772 5772 5773 5773 5772 5772 5772 5772 5772 5772 5772 5772 5772 5772 5772 5772 5772 5772 5772 5772 5772
5769 5769 5769 5769 5770 5770 5770 5771 5771 5771 5771 5771 5771 5771 5771 5771 5771 5771 5771 5771 5771 5771 5771 5771 5771 5771 5771 5771 5771 5771 5771 5771 5771 5771 5771 5771 5771 5771 5771 5771 5771 5771 5770 5771 5771 5771 5771 5771 5771 5771 5771 5771 5771 5771 5770 5770 5770 5770 5770 5770 5770 5769 5769
5768 5768 5768 5768 5768 5768 5768 5769 5768 5768 5768 5769 5769 5768 5769 5768 5769 5769 5769 5770 5769 5769 5769 5769 5769 5769 5769 5769 5769 5769 5769 5770 5769 5770 5769 5769 5769 5769 5769 5769 5769 5769 5769 5769 5769 5769 5769 5769 5769 5769 5769 5769 5769 5769 5769 5769 5769 5768 5768 5768 5768 5768 5767
5766 5766 5766 5766 5766 5766 5766 5766 5766 5766 5766 5766 5765 5765 5765 5765 5765 5766 5767 5767 5767 5767 5767 5767 5767 5767 5768 5768 5768 5768 5768 5768 5768 5768 5768 5768 5768 5768 5768 5768 5768 5768 5768 5767 5767 5767 5767 5768 5768 5768 5768 5768 5768 5768 5768 5768 5767 5767 5767 5767 5766 5766 5766
5763 5764 5765 5765 5765 5765 5764 5764 5764 5764 5764 5763 5762 5761 5760 5760 5761 5762 5764 5764 5765 5765 5765 5765 5765 5765 5766 5766 5766 5766 5766 5766 5766 5766 5766 5766 5766 5766 5767 5766 5766 5766 5766 5766 5766 5766 5766 5766 5767 5767 5767 5767 5767 5767 5767 5766 5766 5766 5766 5765 5765 5765 5765
5760 5761 5762 5763 5763 5763 5763 5763 5762 5762 5761 5760 5759 5758 5757 5756 5757 5759 5760 5761 5762 5762 5763 5763 5763 5763 5764 5764 5764 5764 5764 5764 5764 5764 5765 5765 5765 5765 5765 5765 5765 5765 5765 5765 5765 5765 5765 5765 5765 5765 5765 5765 5765 5765 5765 5765 5765 5764 5764 5764 5764 5764 5764
5757 5758 5759 5761 5761 5761 5761 5761 5761 5760 5759 5758 5757 5756 5755 5754 5755 5756 5757 5758 5759 5760 5760 5761 5761 5762 5762 5762 5762 5762 5762 5762 5762 5762 5763 5763 5763 5763 5763 5764 5764 5764 5764 5764 5764 5764 5764 5764 5764 5764 5764 5763 5763 5763 5763 5763 5763 5763 5763 5763 5762 5762 5762
5755 5756 5757 5758 5759 5759 5759 5759 5758 5758 5757 5756 5755 5755 5754 5753 5753 5753 5754 5755 5756 5757 5758 5759 5759 5760 5760 5760 5760 5760 5760 5760 5760 5761 5761 5761 5761 5761 5762 5762 5762 5762 5762 5762 5762 5762 5762 5762 5762 5762 5762 5762 5762 5761 5761 5761 5761 5761 5761 5761 5761 5761 5760
5753 5754 5755 5755 5756 5756 5756 5756 5756 5756 5756 5755 5754 5753 5753 5752 5751 5751 5752 5752 5754 5755 5756 5757 5758 5758 5758 5758 5759 5759 5759 5759 5759 5759 5759 5759 5759 5760 5760 5760 5760 5760 5760 5760 5760 5760 5760 5760 5760 5760 5760 5760 5760 5759 5759 5759 5760 5760 5760 5760 5759 5759 5759
5751 5752 5752 5753 5753 5754 5754 5754 5754 5754 5754 5753 5752 5752 5751 5751 5750 5750 5750 5751 5752 5753 5754 5755 5756 5756 5757 5757 5757 5757 5757 5757 5757 5757 5757 5757 5757 5758 5758 5758 5758 5758 5758 5758 5758 5758 5758 5758 5758 5758 5758 5757 5757 5757 5757 5757 5757 5758 5758 5758 5758 5757 5757
5749 5749 5750 5751 5751 5751 5752 5752 5752 5752 5752 5752 5751 5750 5750 5750 5749 5749 5749 5750 5750 5751 5752 5753 5754 5754 5755 5755 5755 5755 5755 5755 5755 5755 5755 5755 5755 5756 5756 5756 5756 5756 5756 5756 5756 5756 5756 5756 5755 5756 5756 5755 5755 5755 5755 5755 5755 5755 5755 5755 5755 5755 5755
5746 5747 5747 5748 5749 5749 5750 5750 5750 5750 5750 5750 5749 5749 5748 5748 5748 5748 5748 5749 5749 5750 5751 5751 5752 5752 5753 5753 5753 5753 5753 5753 5753 5753 5753 5753 5753 5753 5754 5754 5754 5754 5754 5754 5754 5754 5754 5754 5754 5754 5754 5754 5754 5753 5753 5753 5753 5753 5753 5753 5753 5753 5753
5743 5744 5745 5746 5746 5747 5747 5747 5748 5748 5748 5748 5747 5746 5746 5746 5746 5746 5747 5747 5748 5748 5749 5749 5750 5750 5751 5751 5751 5751 5751 5751 5751 5751 5751 5751 5751 5751 5751 5751 5751 5751 5751 5751 5751 5751 5752 5752 5752 5752 5752 5751 5751 5751 5751 5751 5750 5750 5750 5750 5750 5750 5750
5741 5742 5743 5743 5744 5745 5745 5745 5745 5746 5746 5745 5744 5744 5744 5744 5744 5744 5745 5745 5746 5746 5747 5747 5747 5748 5748 5748 5749 5749 5749 5749 5749 5749 5749 5749 5749 5749 5749 5749 5749 5749 5749 5749 5749 5749 5749 5749 5749 5749 5749 5749 5749 5749 5749 5748 5748 5748 5747 5747 5747 5747 5748
5739 5739 5740 5741 5741 5742 5742 5743 5743 5743 5743 5742 5742 5741 5741 5741 5742 5742 5743 5743 5744 5744 5744 5744 5745 5745 5746 5746 5746 5746 5746 5746 5746 5747 5747 5747 5747 5747 5747 5746 5746 5746 5746 5746 5746 5746 5746 5747 5746 5747 5746 5746 5746 5746 5746 5745 5745 5745 5744 5744 5743 5743 5744
5736 5737 5737 5738 5739 5739 5739 5739 5739 5740 5739 5739 5739 5739 5739 5739 5739 5740 5741 5741 5741 5741 5741 5741 5742 5742 5743 5743 5743 5744 5744 5743 5743 5744 5744 5744 5744 5744 5743 5743 5743 5743 5743 5743 5743 5743 5743 5743 5743 5743 5743 5743 5743 5743 5743 5743 5742 5741 5741 5741 5740 5739 5739
5734 5734 5734 5735 5735 5736 5736 5736 5736 5736 5736 5736 5736 5736 5736 5737 5737 5737 5737 5738 5738 5738 5738 5738 5739 5739 5739 5740 5740 5740 5741 5741 5741 5741 5741 5741 5741 5740 5740 5739 5739 5739 5739 5739 5739 5739 5739 5739 5740 5740 5740 5740 5740 5740 5739 5739 5739 5738 5738 5738 5736 5735 5735
5730 5730 5730 5731 5731 5732 5732 5732 5732 5733 5733 5733 5733 5733 5733 5733 5734 5734 5734 5734 5734 5734 5735 5735 5735 5735 5736 5736 5736 5737 5738 5738 5738 5738 5738 5738 5737 5737 5736 5735 5735 5734 5734 5735 5735 5735 5735 5736 5736 5736 5736 5736 5736 5736 5736 5736 5735 5735 5734 5734 5733 5732 5731
5725 5726 5726 5726 5727 5727 5728 5728 5728 5729 5729 5729 5729 5729 5729 5729 5730 5730 5730 5730 5730 5730 5731 5731 5731 5731 5732 5732 5732 5733 5734 5734 5734 5734 5734 5734 5733 5733 5732 5731 5730 5730 5730 5731 5731 5731 5732 5732 5732 5732 5732 5732 5732 5732 5732 5732 5731 5731 5730 5730 5729 5728 5727
5720 5720 5721 5722 5722 5723 5723 5724 5724 5724 5724 5724 5725 5725 5724 5724 5725 5725 5725 5725 5725 5726 5726 5726 5726 5727 5727 5727 5728 5728 5729 5729 5729 5730 5730 5730 5729 5729 5728 5727 5726 5726 5726 5726 5727 5727 5728 5728 5728 5728 5728 5728 5728 5728 5728 5727 5727 5726 5726 5725 5724 5723 5722
5715 5715 5716 5717 5717 5718 5718 5719 5719 5719 5719 5719 5720 5720 5720 5720 5720 5720 5720 5720 5720 5721 5721 5721 5722 5722 5723 5723 5723 5723 5723 5724 5724 5724 5725 5725 5725 5724 5724 5723 5722 5722 5722 5721 5722 5723 5723 5724 5724 5724 5724 5724 5724 5724 5723 5722 5722 5721 5720 5720 5719 5718 5717
5709 5710 5711 5711 5711 5712 5712 5712 5713 5713 5713 5714 5714 5714 5715 5714 5714 5715 5715 5715 5715 5716 5716 5717 5717 5717 5718 5718 5718 5718 5718 5718 5719 5719 5719 5720 5719 5719 5719 5718 5717 5717 5717 5717 5717 5718 5719 5719 5719 5719 5719 5719 5719 5719 5718 5718 5717 5716 5715 5714 5714 5713 5713
5703 5704 5704 5705 5706 5705 5705 5705 5706 5707 5707 5707 5707 5708 5709 5709 5708 5709 5709 5710 5711 5710 5711 5712 5712 5712 5713 5713 5713 5713 5713 5714 5714 5714 5714 5714 5714 5713 5714 5713 5712 5713 5712 5712 5713 5714 5714 5714 5714 5714 5714 5714 5714 5714 5714 5713 5712 5712 5711 5710 5709 5708 5707
5697 5698 5698 5699 5699 5699 5699 5700 5700 5701 5701 5702 5702 5703 5703 5704 5704 5704 5704 5705 5706 5706 5706 5707 5707 5707 5708 5708 5707 5708 5708 5708 5709 5708 5708 5709 5709 5708 5708 5708 5708 5708 5708 5708 5708 5709 5709 5709 5709 5710 5710 5710 5710 5710 5709 5709 5708 5707 5706 5705 5704 5703 5702
5692 5692 5692 5693 5693 5694 5694 5695 5695 5696 5697 5697 5698 5698 5699 5700 5700 5699 5700 5700 5700 5700 5701 5701 5701 5702 5702 5702 5702 5702 5702 5702 5702 5702 5703 5704 5703 5703 5703 5702 5702 5703 5703 5703 5704 5704 5704 5704 5705 5705 5705 5705 5705 5705 5704 5703 5703 5702 5701 5700 5699 5698 5697
5687 5687 5687 5687 5688 5689 5689 5689 5690 5690 5691 5692 5693 5693 5694 5695 5694 5694 5695 5694 5694 5695 5695 5695 5695 5696 5696 5696 5697 5696 5696 5696 5696 5696 5697 5697 5697 5698 5697 5696 5696 5697 5697 5698 5699 5699 5699 5699 5700 5700 5700 5699 5699 5700 5699 5697 5697 5696 5696 5695 5694 5693 5692
5681 5681 5681 5681 5682 5682 5683 5683 5684 5684 5685 5685 5686 5686 5687 5688 5688 5688 5688 5688 5688 5689 5689 5689 5689 5689 5690 5691 5691 5690 5690 5690 5690 5691 5691 5690 5690 5691 5691 5690 5690 5691 5692 5693 5693 5694 5694 5694 5694 5694 5694 5693 5693 5694 5694 5692 5691 5691 5691 5690 5689 5688 5686
5674 5674 5674 5674 5675 5675 5675 5676 5676 5677 5678 5678 5678 5679 5679 5680 5680 5681 5681 5681 5681 5682 5682 5682 5683 5683 5683 5684 5685 5684 5683 5683 5684 5685 5685 5684 5684 5684 5683 5683 5684 5685 5687 5688 5688 5688 5689 5688 5688 5688 5688 5687 5687 5688 5688 5687 5686 5685 5685 5684 5683 5682 5680
5667 5667 5667 5667 5667 5668 5668 5668 5668 5669 5670 5670 5670 5671 5672 5672 5672 5673 5673 5673 5673 5674 5674 5674 5675 5675 5676 5677 5678 5677 5676 5677 5677 5678 5679 5680 5679 5678 5677 5677 5678 5680 5681 5682 5682 5683 5683 5682 5682 5682 5682 5682 5682 5682 5682 5682 5681 5680 5679 5678 5677 5675 5673
5658 5659 5659 5659 5659 5659 5659 5659 5659 5660 5660 5661 5661 5662 5663 5663 5663 5664 5664 5664 5665 5665 5666 5666 5666 5667 5668 5670 5670 5671 5672 5671 5670 5671 5673 5673 5672 5671 5671 5672 5673 5674 5675 5676 5676 5676 5677 5676 5676 5676 5676 5676 5676 5676 5676 5676 5675 5674 5673 5671 5670 5668 5667
5649 5649 5650 5650 5650 5650 5650 5650 5650 5650 5651 5651 5652 5653 5655 5655 5655 5655 5655 5655 5656 5657 5658 5659 5659 5659 5660 5662 5664 5667 5667 5665 5664 5665 5665 5665 5665 5666 5666 5666 5667 5668 5669 5669 5670 5670 5670 5671 5671 5671 5671 5671 5671 5670 5670 5669 5669 5668 5666 5665 5663 5662 5661
5640 5640 5640 5640 5640 5641 5641 5641 5641 5641 5641 5642 5642 5644 5645 5646 5647 5647 5647 5647 5648 5648 5649 5650 5651 5651 5653 5655 5657 5661 5661 5659 5658 5658 5657 5658 5660 5661 5660 5660 5662 5662 5662 5663 5664 5664 5664 5665 5665 5665 5665 5665 5665 5664 5664 5663 5662 5661 5660 5659 5657 5656 5654
Wind_Speed
15 15 14 14 15 16 16 16 15 13 12 11 11 11 12 12 13 13 13 12 12 13 14 15 16 17 17 18 19 19 19 19 19 20 20 20 20 19 20 21 21 20 20 20 20 18 17 19 19 19 19 19 20 21 21 20 19 18 18 18 18 18 19
14 13 13 14 15 16 16 17 16 15 14 12 11 11 11 11 12 13 13 13 13 13 14 15 16 18 18 19 19 19 19 18 19 19 19 20 20 20 20 21 21 21 21 20 18 18 21 22 21 20 20 21 22 22 22 22 21 20 20 20 20 20 20
13 13 14 15 16 17 17 17 17 17 16 15 14 14 13 12 12 12 13 13 13 13 14 15 16 18 19 19 19 19 19 18 18 18 19 19 19 19 19 20 21 22 21 20 20 21 23 23 22 22 22 23 23 23 23 23 22 22 21 20 21 21 21
13 13 13 14 15 17 18 18 18 18 18 17 16 16 15 14 13 13 13 13 13 14 15 15 16 18 19 20 20 20 19 18 18 18 18 18 18 18 19 20 21 21 21 21 22 24 24 23 23 23 23 23 23 23 23 23 22 22 22 21 21 21 21
13 13 13 13 14 16 18 19 19 18 18 17 17 17 17 16 15 16 16 16 16 16 16 16 16 18 19 20 20 20 19 18 17 17 17 17 17 17 18 19 20 20 21 21 22 22 22 22 22 22 22 22 22 22 22 22 22 21 22 21 20 19 19
13 12 12 12 13 16 18 19 20 19 19 18 18 18 17 17 16 16 17 17 17 17 17 16 17 17 19 20 20 19 18 17 17 16 16 16 16 16 17 17 18 19 19 20 20 20 20 20 20 20 20 20 20 21 21 20 20 20 19 19 19 18 16
14 13 13 13 13 15 17 18 19 19 19 18 17 17 16 16 16 15 14 15 16 16 17 17 17 17 18 19 19 19 18 17 16 15 15 15 16 16 16 16 16 16 16 16 17 17 17 17 17 17 17 18 18 19 19 19 18 17 17 17 17 16 15
16 14 13 13 14 15 16 17 18 19 19 18 18 18 17 16 16 15 14 14 14 16 17 18 17 17 18 18 19 18 17 16 15 15 14 15 15 15 15 15 14 14 14 14 14 14 14 14 14 15 15 15 16 16 17 17 17 16 16 16 16 15 15
16 14 14 15 16 16 16 16 17 17 18 18 19 20 19 18 18 18 17 16 16 17 18 18 17 17 17 18 18 17 16 15 15 14 14 14 14 15 15 14 14 13 13 13 13 12 12 12 13 13 14 14 14 15 15 15 16 16 15 15 14 14 14
15 14 16 16 16 16 15 15 16 16 18 18 18 19 19 18 18 19 19 17 17 18 19 18 17 17 18 18 18 17 16 15 14 13 12 12 13 13 14 14 13 13 13 13 12 12 12 12 12 13 13 13 13 13 14 14 14 14 14 14 13 13 13
15 15 17 17 16 16 15 16 17 18 19 20 19 19 17 14 15 17 19 19 18 18 19 19 18 17 18 18 17 16 15 14 13 12 11 11 12 12 13 13 13 13 13 12 12 12 12 13 13 13 13 13 13 13 13 13 13 14 14 14 13 13 13
17 17 18 18 16 16 15 15 16 18 19 18 19 19 17 14 12 15 18 20 20 19 19 18 17 17 18 17 17 16 15 14 13 12 12 12 12 13 13 13 13 13 13 13 13 13 13 13 13 13 13 14 14 14 14 14 14 14 14 14 14 14 14
20 19 18 18 17 16 15 15 15 17 17 16 17 18 17 14 11 12 15 17 18 19 18 17 16 16 17 17 17 16 15 15 14 14 14 14 14 14 14 15 14 14 14 14 13 13 13 14 14 14 14 15 15 15 15 15 15 15 14 15 15 15 14
23 21 19 18 17 17 16 14 15 15 15 14 15 15 15 14 12 10 11 12 14 16 16 15 15 16 17 17 17 17 16 16 16 16 16 16 16 16 16 16 15 15 15 14 14 13 13 13 13 14 14 15 15 15 16 16 16 15 15 15 15 15 15
24 22 20 19 18 18 16 15 15 15 14 14 14 13 13 13 12 10 10 11 12 14 14 14 15 16 17 18 18 18 18 18 18 18 17 17 17 16 16 16 16 16 15 15 14 14 14 13 13 14 14 14 15 15 15 15 15 14 14 14 14 15 15
23 21 20 19 18 17 17 16 16 15 14 14 13 13 12 12 11 11 10 11 12 13 14 14 15 16 18 19 20 21 21 20 20 20 19 18 18 17 17 16 16 16 16 16 15 15 15 15 15 15 14 14 15 16 16 16 15 14 14 14 14 14 14
20 20 19 19 18 18 18 17 16 16 16 15 13 12 12 12 12 12 12 12 13 14 14 15 16 17 18 19 20 21 22 22 21 21 20 20 19 19 19 18 17 17 17 17 17 17 17 17 17 17 16 16 16 16 16 17 17 17 17 17 16 16 16
19 18 18 18 18 18 18 17 17 17 17 16 14 13 12 12 13 13 13 13 14 15 16 17 17 18 19 19 20 21 22 23 23 22 21 21 21 21 21 20 19 19 19 20 20 20 20 20 20 20 20 20 19 18 18 18 18 19 20 20 19 19 19
18 18 17 17 17 17 17 18 18 18 17 16 14 13 13 13 14 15 15 15 16 17 17 18 19 19 20 21 21 22 23 24 24 23 23 23 23 23 23 22 22 22 23 23 23 23 23 23 24 24 24 24 24 23 22 22 21 22 23 23 23 23 22
20 20 19 18 17 17 18 19 19 19 17 16 14 13 13 14 15 16 17 17 18 18 19 20 21 21 21 23 24 24 25 27 26 25 24 24 25 25 26 26 25 25 26 26 26 27 27 26 27 27 27 28 28 27 26 26 26 26 26 27 29 29 28
22 22 21 20 19 19 19 20 21 20 19 18 17 17 16 16 17 18 19 19 20 20 20 21 21 21 22 23 25 26 28 29 28 27 25 25 25 26 28 29 30 30 29 29 29 29 29 29 29 29 29 30 30 30 30 30 30 30 30 31 33 34 34
23 23 23 23 23 22 22 22 23 22 22 22 21 21 21 21 21 22 22 22 22 22 22 22 21 21 22 23 24 26 28 30 31 30 28 27 27 27 28 31 32 33 32 31 31 31 31 31 32 32 33 32 32 32 33 32 32 33 33 34 35 37 37
26 26 26 26 26 26 26 26 26 26 26 26 26 26 26 25 25 25 25 25 25 25 26 26 26 26 27 27 26 27 28 31 33 32 31 31 30 29 30 30 31 32 33 33 33 33 33 32 33 33 34 33 33 32 33 33 33 34 35 36 38 39 40
29 29 29 29 29 29 29 30 30 30 30 30 30 30 30 29 28 28 28 28 29 29 29 30 30 31 32 32 32 32 31 31 34 35 33 33 33 32 30 30 30 31 32 32 32 31 31 32 33 33 34 33 33 33 34 35 35 37 37 38 39 41 42
31 31 31 31 31 32 32 33 34 34 34 34 34 34 33 32 32 32 32 32 32 32 32 33 33 33 33 34 35 36 35 34 36 36 36 35 36 34 31 31 31 31 31 31 31 30 31 32 32 32 33 34 35 36 37 39 40 41 41 42 42 43 44
34 34 34 34 35 36 36 36 37 37 38 38 37 36 36 36 36 36 35 36 36 35 35 36 36 35 35 36 37 38 39 39 38 36 36 37 38 36 34 33 33 33 34 34 35 35 35 35 35 35 36 37 38 40 41 42 43 44 44 43 43 43 43
38 38 38 38 39 39 39 39 39 40 40 40 40 39 39 39 39 37 36 35 36 37 38 37 37 37 37 38 39 40 42 43 41 38 37 38 39 39 38 37 36 36 37 38 38 37 37 37 38 38 38 38 39 39 40 41 41 41 41 41 41 42 42
43 43 43 43 43 43 43 42 40 39 38 38 39 40 40 39 37 35 34 34 36 38 37 36 36 38 38 40 42 43 43 45 44 43 41 40 40 40 40 41 40 39 39 39 38 37 37 38 38 38 38 38 38 38 39 39 40 40 40 41 42 42 43
48 47 47 46 45 43 41 39 37 35 35 36 37 38 38 37 36 35 36 37 38 39 39 38 38 38 39 41 44 45 45 45 45 46 46 43 43 44 44 44 43 42 41 40 39 38 38 38 38 38 38 38 38 39 40 40 41 42 42 42 43 44 45
48 47 45 43 41 38 37 36 36 36 36 36 36 36 36 36 38 40 41 42 42 42 41 41 40 40 41 42 44 46 47 47 47 48 48 47 47 47 46 45 45 43 41 39 38 38 39 38 38 38 37 38 39 40 41 43 43 44 44 44 45 46 47
46 45 45 44 43 42 42 42 42 43 43 43 43 43 43 43 45 47 48 49 50 49 48 46 45 45 44 44 45 47 49 50 50 49 49 49 49 47 46 45 45 43 41 39 38 38 39 39 38 38 39 40 41 41 42 44 44 44 44 44 45 46 47
49 49 51 51 51 52 52 52 51 51 51 51 51 51 52 52 53 54 54 55 55 54 54 53 51 50 49 47 48 49 50 51 50 48 48 50 50 49 48 47 45 44 42 40 39 39 41 41 40 40 41 41 41 41 41 42 43 43 44 44 45 46 48
56 58 58 59 59 59 59 59 58 58 57 57 56 57 57 57 58 58 58 58 57 57 57 56 55 54 53 51 49 50 51 52 51 49 48 47 45 44 46 47 45 42 40 38 39 42 43 43 43 42 42 42 42 42 41 42 43 45 45 46 47 49 51
63 64 64 64 64 64 64 64 63 62 62 61 61 61 61 61 61 61 61 61 61 60 60 59 57 55 54 52 50 50 51 51 50 50 47 43 42 43 45 44 41 39 38 41 43 45 45 44 43 42 42 41 42 42 43 44 45 47 49 50 51 52 53
67 67 67 67 67 67 66 66 66 66 66 65 64 64 64 64 64 63 63 63 62 61 60 59 57 55 53 52 50 49 48 49 50 50 45 43 47 49 47 44 41 41 44 46 47 46 44 43 42 41 41 41 42 44 46 47 48 49 50 51 51 52 52
69 70 69 69 69 69 69 69 68 68 68 68 68 67 66 65 64 63 63 62 61 60 59 56 54 53 51 50 48 45 45 47 47 46 43 43 46 48 47 46 46 48 50 49 48 46 44 42 42 42 42 43 45 46 48 49 49 49 49 49 50 50 50
70 71 71 71 71 71 71 71 70 70 70 70 69 67 65 65 64 62 61 60 59 58 57 54 53 51 49 48 46 44 45 48 47 45 45 47 47 48 49 51 51 52 51 50 49 47 45 44 44 45 45 46 47 48 49 48 48 47 47 48 49 50 52
Wind_Direction
259 253 251 251 251 250 247 248 251 254 258 263 268 267 265 265 267 268 267 267 269 273 275 277 278 278 276 274 273 273 273 276 280 283 284 285 285 287 288 289 289 288 287 287 285 278 273 281 287 282 278 278 278 278 279 280 282 282 282 281 280 280 279
259 254 252 252 253 252 250 248 246 250 258 265 274 278 278 275 271 270 269 269 271 273 276 278 279 281 280 279 277 276 276 277 279 282 286 289 290 291 291 292 291 289 288 287 281 274 276 282 283 279 279 280 281 281 282 283 284 284 283 281 280 280 279
254 256 254 252 255 256 256 252 247 250 258 264 273 280 283 284 281 276 272 271 274 276 278 280 281 282 281 280 278 277 276 277 277 280 285 288 289 290 290 290 289 289 289 287 281 278 281 284 284 282 283 283 282 282 282 283 284 285 284 282 281 280 279
250 255 257 258 260 261 263 260 254 252 255 263 272 279 282 283 280 275 273 273 276 280 284 285 285 284 283 281 279 277 276 277 277 278 281 284 286 287 288 288 288 288 288 286 283 284 287 288 287 285 284 283 283 283 283 284 284 285 284 282 280 278 277
249 253 256 261 263 265 269 269 267 263 261 267 275 280 283 282 276 271 271 272 275 279 284 288 288 286 284 282 280 277 276 275 275 276 279 282 285 288 290 291 290 290 290 288 286 286 288 288 286 285 284 283 283 283 283 283 283 283 283 282 280 278 275
252 255 257 262 264 267 271 273 276 276 275 276 279 283 283 280 276 270 268 270 273 277 281 286 289 288 285 282 280 277 275 276 276 277 280 284 289 292 293 295 295 294 293 292 291 288 287 286 285 284 283 283 283 283 283 284 284 283 283 284 285 284 282
256 258 260 266 270 272 275 278 281 283 283 283 285 288 286 280 274 268 269 272 275 277 281 285 288 288 285 281 278 276 276 277 279 281 284 287 291 294 295 296 296 295 295 294 293 290 288 285 283 282 280 280 280 281 282 282 284 285 285 285 286 287 288
263 265 268 271 273 277 281 283 285 287 290 291 292 293 289 280 270 264 267 274 279 282 283 284 286 286 285 280 277 275 275 276 280 284 288 291 294 297 298 298 295 293 291 290 290 288 286 284 281 279 277 276 276 277 278 280 282 283 284 283 283 284 286
265 271 276 277 275 277 283 288 289 288 289 292 297 299 292 279 267 263 266 271 279 283 282 282 283 283 283 280 276 274 275 277 280 285 291 296 300 301 300 298 295 291 289 286 286 285 284 282 280 278 277 276 276 276 277 278 280 282 283 283 283 284 285
261 270 275 274 270 273 281 289 291 289 288 292 300 308 304 285 265 260 265 271 278 281 279 278 279 279 280 278 275 274 274 276 278 282 289 295 299 300 300 298 296 293 290 286 284 282 282 281 279 279 278 278 277 277 278 279 281 283 284 285 285 286 287
256 262 265 264 263 270 279 286 288 289 291 293 298 309 317 304 274 262 265 271 277 278 274 275 277 277 277 274 272 271 270 271 272 276 281 287 291 294 296 297 297 295 293 290 287 283 282 280 278 277 277 278 278 278 279 279 280 282 284 285 286 286 287
252 253 256 260 265 273 279 283 285 288 294 298 300 305 314 316 293 273 271 272 273 271 270 273 275 274 273 269 267 265 264 265 266 268 272 275 280 284 288 291 292 292 292 290 288 285 283 282 280 280 279 278 279 277 277 276 276 277 279 281 283 283 285
251 251 254 260 266 272 276 279 282 287 294 300 303 303 306 308 299 282 276 274 270 267 267 269 270 268 266 263 263 263 263 263 264 266 268 270 273 276 279 281 283 285 287 286 285 284 283 282 281 280 279 277 275 273 271 270 270 271 272 274 277 280 281
253 254 257 262 268 271 272 272 274 279 285 292 297 299 298 297 294 288 280 274 267 263 261 263 264 265 264 262 262 262 262 263 265 266 268 269 270 271 272 273 275 277 278 279 280 279 279 279 276 275 274 273 274 273 272 272 272 272 271 271 272 275 276
255 258 261 265 268 270 269 266 267 272 280 286 290 292 291 290 290 288 281 271 263 257 256 258 261 264 267 267 265 263 261 261 262 263 264 265 265 266 268 269 270 272 273 274 274 274 273 272 269 269 271 271 273 275 276 277 278 278 277 275 274 274 275
257 261 264 265 266 266 265 265 267 272 278 281 283 284 286 288 289 287 282 272 262 254 252 255 259 264 267 267 266 264 262 262 262 262 262 262 262 263 264 266 268 270 270 270 269 268 267 264 262 264 268 269 271 274 274 273 273 272 271 269 268 269 270
258 261 262 262 262 261 261 264 266 269 272 274 274 275 280 286 287 284 279 275 268 260 255 255 259 263 266 266 266 264 263 263 262 262 263 263 264 264 264 263 263 265 266 267 268 267 265 264 261 261 262 264 266 269 269 268 267 266 263 261 261 263 266
256 258 258 257 256 257 258 261 262 264 267 269 269 271 275 280 281 281 279 278 275 269 264 261 262 263 264 264 264 264 264 263 262 262 263 264 265 265 265 265 264 265 265 266 267 268 268 268 267 266 266 266 266 267 268 268 268 267 267 265 265 266 268
253 255 256 256 256 255 254 256 258 261 264 267 270 273 273 274 275 278 281 284 283 278 271 265 263 262 260 260 260 262 263 263 262 262 262 263 263 263 263 264 266 266 266 267 268 269 270 271 271 271 271 270 270 270 270 270 270 270 271 273 273 272 272
257 257 257 258 257 255 253 254 257 260 263 266 269 270 269 269 270 273 280 285 287 284 278 271 266 263 262 260 258 258 260 261 261 260 262 264 264 263 263 264 264 264 265 266 267 268 268 269 270 271 271 272 273 273 273 273 273 273 274 276 277 277 276
259 259 260 260 258 257 257 257 260 263 264 265 266 266 265 264 264 268 274 280 284 285 283 278 273 270 267 265 261 257 257 258 259 260 262 264 265 265 265 264 263 263 264 265 266 267 268 268 269 270 271 272 274 275 275 276 276 277 278 279 280 281 281
259 262 264 265 264 264 263 263 264 265 265 266 266 265 264 263 264 265 268 272 277 280 281 281 279 274 271 270 269 263 257 256 258 260 262 263 263 264 265 265 263 262 263 264 264 265 267 268 269 270 271 273 275 276 276 276 278 279 280 281 281 282 283
262 265 267 267 268 269 269 269 269 269 268 268 266 266 266 265 266 266 267 269 271 273 276 278 278 277 276 276 276 273 264 256 255 257 259 260 260 262 264 265 264 263 263 264 263 264 265 268 269 270 271 273 275 277 277 278 279 280 281 281 281 282 282
266 267 267 268 268 268 268 269 270 271 271 270 270 269 268 268 268 269 269 270 270 272 273 275 276 278 279 279 279 279 275 264 255 252 254 256 258 261 263 266 266 265 265 266 264 263 265 268 270 271 271 272 273 275 277 278 279 280 280 281 281 282 283
267 268 268 269 269 268 268 268 268 269 270 270 271 271 271 271 272 271 270 270 270 271 272 272 274 276 277 278 278 279 279 274 264 255 252 254 257 258 261 263 265 265 265 264 262 264 267 270 271 272 271 271 271 272 274 275 277 278 278 279 280 280 281
269 269 270 270 270 270 270 269 270 271 271 270 270 270 271 273 272 272 272 272 272 272 271 272 273 274 274 274 275 276 277 276 272 264 259 258 256 253 254 258 260 261 263 265 266 268 271 271 271 271 271 272 272 272 274 275 276 277 278 278 278 279 279
271 272 272 272 272 273 274 274 274 275 275 273 272 271 272 273 273 272 271 272 273 273 272 272 272 272 273 273 273 273 273 274 274 272 269 265 257 250 252 259 263 264 264 266 269 271 272 272 273 273 274 274 274 275 276 277 278 279 280 280 280 280 280
274 274 275 275 276 277 278 279 279 280 279 277 276 274 272 272 273 271 269 269 271 272 273 273 272 272 274 274 272 271 271 272 274 273 272 269 263 258 260 265 269 269 268 268 269 270 271 271 272 273 273 274 275 276 276 277 278 279 280 281 282 282 282
275 276 276 277 277 277 277 277 277 279 280 279 277 274 271 269 270 271 272 272 272 272 273 273 274 275 276 275 274 273 273 272 271 270 270 269 267 266 266 267 270 271 269 267 268 269 269 269 270 271 272 273 274 275 276 277 277 278 279 281 282 283 284
275 275 276 276 276 275 275 275 275 276 277 276 274 271 267 264 265 268 271 274 276 275 273 273 275 277 278 277 277 275 274 272 270 269 269 269 269 267 265 266 268 267 264 263 264 266 268 269 269 271 273 275 277 278 278 278 278 279 280 281 282 283 284
273 274 275 276 275 275 275 275 275 275 275 274 273 270 268 266 266 268 270 273 275 275 274 275 277 277 277 279 278 275 273 271 270 269 270 269 268 266 264 264 264 261 260 261 262 264 266 268 269 272 275 278 280 280 279 279 279 280 280 281 282 282 284
270 271 273 274 274 274 274 274 273 273 273 273 273 272 271 270 270 271 272 273 274 274 274 275 276 277 276 277 277 275 272 270 268 269 271 271 268 266 262 260 258 257 257 259 262 265 267 269 272 276 279 281 282 282 281 280 280 281 281 282 283 284 286
270 271 272 273 273 273 274 273 273 272 272 272 272 272 272 271 272 272 272 273 273 274 274 274 275 275 276 276 276 273 270 269 267 268 271 270 265 261 257 254 252 252 254 259 266 268 269 270 273 276 279 281 283 283 283 282 282 283 283 283 284 286 287
270 271 271 272 273 273 273 273 273 273 273 272 272 272 272 272 272 273 273 273 273 274 274 274 275 274 274 274 273 269 268 268 267 267 265 259 252 249 250 249 249 251 259 267 270 270 269 270 273 275 277 279 281 282 282 282 282 283 284 284 285 286 287
270 271 271 272 273 273 273 274 274 274 274 274 274 274 274 274 274 274 274 273 273 274 274 274 274 273 272 271 270 268 269 268 265 263 259 250 245 246 247 248 253 261 269 272 271 269 269 270 272 273 275 277 280 282 283 283 283 284 285 285 286 285 285
271 271 272 272 272 273 273 273 274 274 274 274 274 274 273 273 273 274 274 274 273 273 273 273 272 271 269 267 265 264 265 263 259 256 251 244 242 244 247 253 262 269 271 270 268 268 269 269 270 272 274 278 281 284 285 286 286 286 286 286 286 286 287
271 271 271 271 271 272 272 272 273 273 273 273 273 273 272 272 271 272 273 273 273 273 272 271 270 268 266 264 259 255 254 254 251 247 244 243 244 248 254 262 268 269 268 266 266 267 268 269 270 272 276 280 283 285 287 287 286 285 286 287 288 289 291